Weather History for K2D5 - February, 2014

Change the Weather History Date:

Saturday, February 22, 2014

  Actual Average (KABR) Record (KABR)
Temperature  
Mean Temperature 8 °F 20 °F  
Max Temperature 15 °F 30 °F 60 °F (1905)
Min Temperature 1 °F 10 °F -24 °F (1918)
Degree Days  
Heating Degree Days 57 45  
Month to date heating degree days 1069  
Since 1 July heating degree days 6203  
Cooling Degree Days 0 0  
Month to date cooling degree days 0  
Year to date cooling degree days 0  
Moisture  
Dew Point 1 °F    
Average Humidity 73    
Maximum Humidity 85    
Minimum Humidity 57    
Precipitation  
Precipitation 0.00 in 0.03 in 0.50 in (1922)
Month to date precipitation 0.40  
Year to date precipitation 0.87  
Snow  
Snow 0.00 in - - ()
Month to date snowfall  
Since 1 July snowfall  
Snow Depth -    
Sea Level Pressure  
Sea Level Pressure 30.02 in    
Wind  
Wind Speed 15 mph (WNW)    
Max Wind Speed 22 mph    
Max Gust Speed 29 mph    
Visibility 10 miles    
Events      
T = Trace of Precipitation, MM = Missing Value Source: NWS Daily Summary

Daily Weather History Graph

Daily Weather History Graph

Search for Another Location

Airport or City:

Trip Planner

Search our weather history database for the weather conditions in past years. The results will help you decide how hot, cold, wet, or windy it might be!

Date:

Astronomy

Feb. 22, 2014 Rise Set
Actual Time 7:23 AM CST 6:08 PM CST
Civil Twilight 6:53 AM CST 6:39 PM CST
Nautical Twilight 6:18 AM CST 7:13 PM CST
Astronomical Twilight 5:43 AM CST 7:48 PM CST
Moon 1:28 AM CST (2/22) 11:11 AM CST (2/22)
Length of Visible Light 11h 45m
Length of Day
10h 45m
Waning Gibbous, 50% of the Moon is Illuminated
Feb 22
Waning Gibbous
Mar 1
New
Mar 8
First Quarter
Mar 16
Full
Mar 23
Last Quarter

Hourly Weather History & Observations

Time (CST) Temp. Windchill Dew Point Humidity Pressure Visibility Wind Dir Wind Speed Gust Speed Precip Events Conditions
12:15 AM 6.8 °F -10.7 °F -0.4 °F 72% 29.85 in 10.0 mi NW 15.0 mph 20.7 mph N/A   Clear
12:35 AM 6.8 °F -7.8 °F -0.4 °F 72% 29.87 in 10.0 mi NW 10.4 mph - N/A   Clear
12:55 AM 6.8 °F -10.0 °F -0.4 °F 72% 29.87 in 10.0 mi NW 13.8 mph - N/A   Clear
1:15 AM 6.8 °F -10.7 °F -0.4 °F 72% 29.87 in 10.0 mi WNW 15.0 mph 21.9 mph N/A   Clear
1:35 AM 5.0 °F -12.3 °F -0.4 °F 78% 29.87 in 10.0 mi WNW 13.8 mph - N/A   Clear
1:55 AM 5.0 °F -10.0 °F -0.4 °F 78% 29.89 in 10.0 mi WNW 10.4 mph - N/A   Clear
2:15 AM 5.0 °F -10.0 °F -0.4 °F 78% 29.89 in 10.0 mi WNW 10.4 mph - N/A   Clear
2:35 AM 5.0 °F -10.0 °F -0.4 °F 78% 29.90 in 10.0 mi WNW 10.4 mph - N/A   Clear
2:55 AM 5.0 °F -10.0 °F -0.4 °F 78% 29.91 in 10.0 mi WNW 10.4 mph - N/A   Clear
3:15 AM 5.0 °F -9.1 °F -0.4 °F 78% 29.91 in 10.0 mi West 9.2 mph - N/A   Clear
3:35 AM 3.2 °F -12.2 °F -0.4 °F 85% 29.91 in 10.0 mi West 10.4 mph - N/A   Clear
3:55 AM 3.2 °F -12.2 °F -0.4 °F 85% 29.91 in 10.0 mi WNW 10.4 mph - N/A   Clear
4:15 AM 3.2 °F -13.1 °F -0.4 °F 85% 29.91 in 10.0 mi WNW 11.5 mph - N/A   Clear
4:35 AM 3.2 °F -12.2 °F -2.2 °F 78% 29.92 in 10.0 mi WNW 10.4 mph - N/A   Clear
4:55 AM 3.2 °F -13.9 °F -2.2 °F 78% 29.93 in 10.0 mi West 12.7 mph - N/A   Clear
5:15 AM 3.2 °F -17.1 °F -2.2 °F 78% 29.93 in 10.0 mi WNW 18.4 mph - N/A   Clear
5:35 AM 3.2 °F -15.9 °F -2.2 °F 78% 29.94 in 10.0 mi WNW 16.1 mph - N/A   Clear
5:55 AM 3.2 °F -14.6 °F -2.2 °F 78% 29.95 in 10.0 mi West 13.8 mph 20.7 mph N/A   Clear
6:15 AM 3.2 °F -15.9 °F -2.2 °F 78% 29.95 in 10.0 mi WNW 16.1 mph 19.6 mph N/A   Clear
6:35 AM 1.4 °F -18.2 °F -2.2 °F 85% 29.95 in 10.0 mi WNW 16.1 mph - N/A   Clear
6:55 AM 1.4 °F -18.2 °F -2.2 °F 85% 29.96 in 10.0 mi WNW 16.1 mph - N/A   Clear
7:15 AM 1.4 °F -16.9 °F -2.2 °F 85% 29.97 in 10.0 mi WNW 13.8 mph - N/A   Clear
7:35 AM 1.4 °F -18.2 °F -2.2 °F 85% 29.97 in 10.0 mi WNW 16.1 mph - N/A   Clear
7:55 AM 3.2 °F -17.6 °F -2.2 °F 78% 29.98 in 10.0 mi WNW 19.6 mph 24.2 mph N/A   Clear
8:15 AM 3.2 °F -16.5 °F -2.2 °F 78% 29.98 in 10.0 mi WNW 17.3 mph - N/A   Clear
8:35 AM 5.0 °F -14.2 °F -2.2 °F 72% 29.99 in 10.0 mi WNW 17.3 mph 23.0 mph N/A   Clear
8:55 AM 5.0 °F -15.2 °F -2.2 °F 72% 29.99 in 10.0 mi WNW 19.6 mph 24.2 mph N/A   Clear
9:15 AM 5.0 °F -14.2 °F -2.2 °F 72% 30.00 in 10.0 mi WNW 17.3 mph - N/A   Clear
9:35 AM 5.0 °F -14.2 °F -2.2 °F 72% 30.01 in 10.0 mi WNW 17.3 mph 23.0 mph N/A   Clear
9:55 AM 6.8 °F -10.7 °F -2.2 °F 67% 30.01 in 10.0 mi WNW 15.0 mph - N/A   Clear
10:15 AM 6.8 °F -12.4 °F -0.4 °F 72% 30.01 in 10.0 mi WNW 18.4 mph 23.0 mph N/A   Clear
10:35 AM 8.6 °F -9.5 °F -0.4 °F 67% 30.01 in 10.0 mi WNW 17.3 mph 21.9 mph N/A   Clear
10:55 AM 8.6 °F -8.3 °F -0.4 °F 67% 30.02 in 10.0 mi WNW 15.0 mph 24.2 mph N/A   Clear
11:15 AM 10.4 °F -7.2 °F -0.4 °F 62% 30.02 in 10.0 mi NW 17.3 mph 25.3 mph N/A   Clear
11:35 AM 10.4 °F -8.6 °F 1.4 °F 67% 30.02 in 10.0 mi NW 20.7 mph 24.2 mph N/A   Clear
11:55 AM 10.4 °F -7.2 °F 1.4 °F 67% 30.03 in 10.0 mi WNW 17.3 mph 23.0 mph N/A   Clear
12:15 PM 12.2 °F -4.8 °F 1.4 °F 62% 30.03 in 10.0 mi NW 17.3 mph 21.9 mph N/A   Clear
12:35 PM 14.0 °F -3.0 °F 1.4 °F 57% 30.04 in 10.0 mi WNW 18.4 mph 25.3 mph N/A   Clear
12:55 PM 14.0 °F -3.0 °F 3.2 °F 62% 30.03 in 10.0 mi WNW 18.4 mph 21.9 mph N/A   Clear
1:15 PM 14.0 °F -3.9 °F 5.0 °F 67% 30.03 in 10.0 mi NW 20.7 mph 25.3 mph N/A   Clear
1:35 PM 15.8 °F -0.2 °F 5.0 °F 62% 30.03 in 10.0 mi WNW 17.3 mph 24.2 mph N/A   Clear
1:55 PM 15.8 °F -1.1 °F 5.0 °F 62% 30.04 in 10.0 mi WNW 19.6 mph 27.6 mph N/A   Clear
2:15 PM 15.8 °F -1.9 °F 5.0 °F 62% 30.03 in 10.0 mi NW 21.9 mph 28.8 mph N/A   Clear
2:35 PM 15.8 °F -1.9 °F 5.0 °F 62% 30.04 in 10.0 mi WNW 21.9 mph 27.6 mph N/A   Clear
2:55 PM 15.8 °F -1.9 °F 5.0 °F 62% 30.04 in 10.0 mi WNW 21.9 mph 27.6 mph N/A   Clear
3:15 PM 15.8 °F -1.5 °F 5.0 °F 62% 30.04 in 10.0 mi NW 20.7 mph 27.6 mph N/A   Clear
3:35 PM 15.8 °F -0.6 °F 5.0 °F 62% 30.04 in 10.0 mi WNW 18.4 mph 27.6 mph N/A   Clear
3:55 PM 15.8 °F -1.9 °F 5.0 °F 62% 30.05 in 10.0 mi NW 21.9 mph 27.6 mph N/A   Clear
4:15 PM 15.8 °F 0.9 °F 5.0 °F 62% 30.05 in 10.0 mi NW 15.0 mph 21.9 mph N/A   Clear
4:35 PM 15.8 °F -1.5 °F 5.0 °F 62% 30.06 in 10.0 mi NW 20.7 mph - N/A   Clear
4:55 PM 15.8 °F -0.6 °F 5.0 °F 62% 30.07 in 10.0 mi NW 18.4 mph 26.5 mph N/A   Clear
5:15 PM 15.8 °F -0.2 °F 5.0 °F 62% 30.08 in 10.0 mi NW 17.3 mph 24.2 mph N/A   Clear
5:35 PM 14.0 °F -3.9 °F 5.0 °F 67% 30.08 in 10.0 mi NW 20.7 mph 24.2 mph N/A   Clear
5:55 PM 14.0 °F -2.0 °F 5.0 °F 67% 30.08 in 10.0 mi NW 16.1 mph 21.9 mph N/A   Clear
6:15 PM 14.0 °F -0.2 °F 5.0 °F 67% 30.09 in 10.0 mi WNW 12.7 mph - N/A   Clear
6:35 PM 12.2 °F -3.1 °F 5.0 °F 73% 30.10 in 10.0 mi WNW 13.8 mph 19.6 mph N/A   Clear
6:55 PM 12.2 °F -4.8 °F 5.0 °F 73% 30.11 in 10.0 mi WNW 17.3 mph - N/A   Clear
7:15 PM 10.4 °F -6.6 °F 5.0 °F 79% 30.11 in 10.0 mi WNW 16.1 mph - N/A   Clear
7:35 PM 10.4 °F -3.3 °F 5.0 °F 79% 30.13 in 10.0 mi WNW 10.4 mph - N/A   Clear
7:55 PM 10.4 °F -2.4 °F 5.0 °F 79% 30.13 in 10.0 mi WNW 9.2 mph - N/A   Clear
8:15 PM 10.4 °F -4.8 °F 5.0 °F 79% 30.13 in 10.0 mi WNW 12.7 mph - N/A   Clear
8:35 PM 8.6 °F -6.3 °F 5.0 °F 85% 30.14 in 10.0 mi WNW 11.5 mph - N/A   Clear
8:55 PM 8.6 °F -4.7 °F 5.0 °F 85% 30.14 in 10.0 mi WNW 9.2 mph - N/A   Clear
9:15 PM 8.6 °F -6.3 °F 5.0 °F 85% 30.14 in 10.0 mi NW 11.5 mph - N/A   Clear
9:35 PM 8.6 °F -5.5 °F 3.2 °F 79% 30.15 in 10.0 mi WNW 10.4 mph - N/A   Clear
9:55 PM 6.8 °F -7.8 °F 3.2 °F 85% 30.16 in 10.0 mi WNW 10.4 mph - N/A   Clear
10:15 PM 6.8 °F -8.6 °F 3.2 °F 85% 30.16 in 10.0 mi WNW 11.5 mph - N/A   Clear
10:35 PM 6.8 °F -9.3 °F 1.4 °F 79% 30.16 in 10.0 mi WNW 12.7 mph - N/A   Clear
10:55 PM 6.8 °F -9.3 °F 1.4 °F 79% 30.17 in 10.0 mi WNW 12.7 mph - N/A   Clear
11:15 PM 6.8 °F -8.6 °F 1.4 °F 79% 30.17 in 10.0 mi WNW 11.5 mph - N/A   Clear
11:35 PM 6.8 °F -5.9 °F 1.4 °F 79% 30.17 in 10.0 mi WNW 8.1 mph - N/A   Clear
11:55 PM 6.8 °F -7.8 °F 1.4 °F 79% 30.18 in 10.0 mi WNW 10.4 mph - N/A   Clear